Regional Weather Roundup
Issued by NWS

Home | Current Version | Previous Version | Graphics & Text | Print | Product List | Glossary On
Versions: 1 2 3 4 5 6 7 8 9 10 11 12 13 14 15 16 17 18 19 20 21 22 23 24 25 26 27
000
ASUS45 KBOU 181207
RWRCO

WEATHER ROUNDUP FOR COLORADO
NATIONAL WEATHER SERVICE DENVER/BOULDER CO
600 AM MDT MON SEP 18 2017

NOTE: "FAIR" INDICATES FEW OR NO CLOUDS BELOW 12000 FEET WITH NO
SIGNIFICANT WEATHER AND/OR OBSTRUCTIONS TO VISIBILITY.

COZ001>005-013-030-031-181300-
...NORTHWEST COLORADO...

CITY           SKY/WX    TMP DP  RH WIND       PRES   REMARKS
CRAIG          FAIR      34  31  88 CALM      30.15S
HAYDEN         FAIR      43  36  76 E12       30.17S
MEEKER         FAIR      41  36  82 CALM      30.17S
RABBIT EARS PA FAIR      36  32  87 W5        30.33S
STEAMBOAT SPGS FAIR      36  34  93 CALM      30.18S
WALDEN         FAIR      32  28  86 SE6       30.23S WCI  26
$$

COZ006>008-011-181300-
...WEST CENTRAL VALLEYS...

CITY           SKY/WX    TMP DP  RH WIND       PRES   REMARKS
GRAND JUNCTION FAIR      58  43  57 SE18      30.08R
MONTROSE       FAIR      48  45  89 S5        30.16F
EAGLE          FAIR      41  34  76 CALM      30.22S
RIFLE          FAIR      47  38  71 CALM      30.14R
DELTA          FAIR      52  41  66 MISG      30.13F
NUCLA          FAIR      50  41  71 SE8       30.18S
$$

COZ017>023-064>068-181300-
...SOUTHWEST COLORADO...

CITY           SKY/WX    TMP DP  RH WIND       PRES   REMARKS
DURANGO        FAIR      43  39  86 N5        30.21R
CORTEZ         FAIR      41  40  96 NE3       30.15S
PAGOSA SPRINGS MOCLDY    41  40  97 CALM      30.28R
TELLURIDE      FAIR      43  37  80 SE5       30.33F
WOLF CREEK PAS FAIR      34  32  93 SW8       30.52R WCI  27
$$

COZ009-010-012-014-032>034-037-058>063-181300-
...CENTRAL COLORADO...

CITY           SKY/WX    TMP DP  RH WIND       PRES   REMARKS
ASPEN          MOCLDY    44  38  79 S8        30.23F
BUENA VISTA    FAIR      37  35  92 CALM      30.28S
COPPER MTN     FAIR      37  28  70 W13G22    30.42S
BERTHOUD PASS  FAIR      30  21  69 W21G31    30.41S WCI  17
COTTONWOOD PAS FAIR      45  34  65 CALM      30.35S
GUNNISON       FAIR      37  36  96 CALM      30.30S
KREMMLING      FAIR      36  32  87 CALM      30.25R
LEADVILLE      FAIR      32  31  96 E3        30.32S
MONARCH PASS   FAIR      32  32 100 W24       30.53F WCI  19
SALIDA         FAIR      43  38  82 CALM      30.34S
SUNLIGHT       FAIR      34  28  80 SW8       30.39S WCI  27
WILKERSON PASS FAIR      36  30  80 SW6       30.41F
$$

COZ069>075-181300-
...SAN LUIS VALLEY/SANGRE DE CRISTO MOUNTAINS...

CITY           SKY/WX    TMP DP  RH WIND       PRES   REMARKS
ALAMOSA        FAIR      34  34 100 CALM      30.27S
DEL NORTE      MOCLDY    40  36  86 W10       30.31R
LA VETA PASS   FAIR      39  37  93 SW12G18   30.47R FOG
SAGUACHE       FAIR      37  36  93 W5        30.29S
$$

COZ035-036-038>040-181300-
...NORTHERN COLORADO FRONT RANGE...

CITY           SKY/WX    TMP DP  RH WIND       PRES   REMARKS
DENVER INTL AP FAIR      50  45  83 SW9       30.08R
DMNS CITY PARK   N/A     52  44  75 E7        30.08S
AURORA         PTCLDY    50  45  84 SW12      30.09F
FRONT RANGE AP FAIR      52  46  82 SW7       30.09S
ERIE MUNI ARPT FAIR      47  42  82 CALM      30.12S
BOULDER MUN AP FAIR      52  37  58 CALM      30.07S
CENTENNIAL     FAIR      48  41  76 VRB3      30.11S
BROOMFIELD     FAIR      50  41  71 SW5       30.09F
FORT COLLINS   FAIR      47  45  93 CALM      30.06F
LONGMONT       FAIR      47  42  84 S3        30.08S
$$

COZ041-046-047-076>085-087-088-181300-
...PIKES PEAK/PALMER DIVIDE AND SOUTHERN FOOTHILLS...

CITY           SKY/WX    TMP DP  RH WIND       PRES   REMARKS
COLO. SPRINGS  FAIR      49  42  77 W3        30.14R
A. F. ACADEMY  FAIR      52  34  50 NE5       30.15R
SCHRIEVER AFB  FAIR      50  39  66 N7        30.14R
CHEYENNE MTN   NOT AVBL
ELLICOTT       NOT AVBL
FALCON         FAIR      53  34  47 NW10G18   30.17R
FORT CARSON    FAIR      49  38  67 NW5       30.11R
LIMON            N/A    N/A N/A N/A MISG      30.08S
MONUMENT HILL  FAIR      46  36  66 SW9       30.19R
CANON CITY     CLEAR     55  43  62 W14       30.12R
WALSENBURG     FAIR      52  41  66 SW10      30.15S
TRINIDAD       FAIR      55  51  86 W10       30.13R
$$

COZ042>045-048>051-090-091-181300-
...NORTHEAST COLORADO...

CITY           SKY/WX    TMP DP  RH WIND       PRES   REMARKS
GREELEY ARPT   FAIR      46  45  96 NW3       30.06S
AKRON          FAIR      51  49  92 SW8       30.03S
BURLINGTON     FOG       48  47  96 N5        30.03R VSB 1/4
WRAY           CLOUDY    55  55 100 SE6       30.00F FOG
YUMA           FOG       50  50 100 SW7       30.02R VSB 1/4
STERLING       FAIR      50  50 100 NW3       30.02R
HOLYOKE        CLOUDY    59  55  88 S12       29.98F
FORT MORGAN    FAIR      50  49  95 NW7       30.05R
$$

COZ086-089-092>099-181300-
...SOUTHEAST COLORADO...

CITY           SKY/WX    TMP DP  RH WIND       PRES   REMARKS
PUEBLO         FAIR      56  41  57 CALM      30.07R
LA JUNTA       FAIR      55  51  86 W7        30.04R
LAMAR          FAIR      50  47  89 W8        30.01R
SPRINGFIELD      N/A     56  56 100 S9        30.06R
$$




USA.gov is the U.S. government's official web portal to all federal, state and local government web resources and services.